ABS-3 (24901 NORAD) Tracking and Keplerian Element Data

This shows tracking and keplerian element data for the satellite.

Feedback or suggestion? Click here.




ElementValue
Catalog24901
NameABS-3
Epoch Orbit7464
Epoch Day10.41307566
Epoch Year2018
RAAN62.1365
Inclination5.2656
Eccentricity0.0009326
Argument of Perigee205.7566
Mean Anonmoly203.0318
Mean Motion0.99260145
Decay Rate4.7E-07
L11 24901U 97042A 18010.41307566 .00000047 00000-0 00000+0 0 9990
L22 24901 5.2656 62.1365 0009326 205.7566 203.0318 0.99260145 74640



Live tracking and technical data element details for ABS-3 (NORAD 24901). ABS-3 can be tracked NOW for your location showing map with azimuth and elevation plus other details from your city location.







IsCatalogInMostPopularTable: catalog: 24901, numindb: 279
Update: records affected: 1



GetName: 24901 ABS-3

Hit Count: updated at: Thu, 15 May 2025 19:32:49 GMT